Private Wetterstation Wechselburg
Wetterdaten: Dienstag, 17.06.2014
Datum Zeit Temp. +2m Bodentemp. Temp.+5cm Temp. Wind Windchill X Diff Temp. Feuchte +2m Feuchte +5cm Sonnenschein Luftdruck Regen Wind Richtung Richtung Sonnenschein UV Taupunkt Windchill Windben
17.06.2014 00:00 11,5 C 26,4 C 12,4 C 11,5 C 11,5 C 0,0 C 86 % 86 % 0 % 1018,6 hPa 0,0 l/m 0,0 km/h (0 Bft) O-NO 67 0 min 0,0 UV-I 9,2 C 11,5 C 0,0 km/h (0 Bft)
17.06.2014 00:05 11,4 C 26,4 C 12,5 C 11,4 C 11,4 C 0,0 C 86 % 86 % 0 % 1018,6 hPa 0,0 l/m 0,0 km/h (0 Bft) O-NO 67 0 min 0,0 UV-I 9,1 C 11,4 C 0,0 km/h (0 Bft)
17.06.2014 00:10 11,4 C 26,4 C 12,4 C 11,4 C 11,4 C 0,0 C 86 % 86 % 0 % 1018,6 hPa 0,0 l/m 0,0 km/h (0 Bft) O-NO 67 0 min 0,0 UV-I 9,1 C 11,4 C 0,0 km/h (0 Bft)
17.06.2014 00:15 11,3 C 26,4 C 12,3 C 11,3 C 11,3 C 0,0 C 86 % 86 % 0 % 1018,6 hPa 0,0 l/m 0,0 km/h (0 Bft) O-NO 67 0 min 0,0 UV-I 9,0 C 11,3 C 0,0 km/h (0 Bft)
17.06.2014 00:20 11,2 C 26,4 C 12,3 C 11,2 C 11,2 C 0,0 C 86 % 86 % 0 % 1018,4 hPa 0,0 l/m 0,0 km/h (0 Bft) O-SO 112 0 min 0,0 UV-I 8,9 C 11,2 C 0,0 km/h (0 Bft)
17.06.2014 00:25 11,1 C 26,4 C 12,3 C 11,2 C 11,2 C 0,1 C 86 % 86 % 0 % 1018,4 hPa 0,0 l/m 0,0 km/h (0 Bft) O-SO 112 0 min 0,0 UV-I 8,8 C 11,2 C 0,0 km/h (0 Bft)
17.06.2014 00:30 11,0 C 26,3 C 12,2 C 11,1 C 11,1 C 0,1 C 86 % 86 % 0 % 1018,4 hPa 0,0 l/m 0,2 km/h (0 Bft) N-NO 22 0 min 0,0 UV-I 8,7 C 11,1 C 0,0 km/h (0 Bft)
17.06.2014 00:35 11,1 C 26,3 C 12,1 C 11,1 C 11,0 C 0,0 C 86 % 86 % 0 % 1018,4 hPa 0,0 l/m 0,2 km/h (0 Bft) N-NW 337 0 min 0,0 UV-I 8,8 C 11,0 C 0,0 km/h (0 Bft)
17.06.2014 00:40 10,9 C 26,3 C 12,1 C 11,0 C 11,0 C 0,1 C 86 % 86 % 0 % 1018,5 hPa 0,0 l/m 0,0 km/h (0 Bft) S 180 0 min 0,0 UV-I 8,7 C 11,0 C 0,0 km/h (0 Bft)
17.06.2014 00:45 10,9 C 26,3 C 12,0 C 10,9 C 10,9 C 0,0 C 86 % 86 % 0 % 1018,5 hPa 0,0 l/m 0,0 km/h (0 Bft) N-NW 337 0 min 0,0 UV-I 8,7 C 10,9 C 0,0 km/h (0 Bft)
17.06.2014 00:50 10,8 C 26,3 C 12,1 C 10,9 C 10,9 C 0,1 C 86 % 86 % 0 % 1018,5 hPa 0,0 l/m 0,0 km/h (0 Bft) N-NW 337 0 min 0,0 UV-I 8,6 C 10,9 C 0,0 km/h (0 Bft)
17.06.2014 00:55 10,8 C 26,3 C 12,0 C 10,8 C 10,8 C 0,0 C 87 % 86 % 0 % 1018,5 hPa 0,0 l/m 0,0 km/h (0 Bft) NW 315 0 min 0,0 UV-I 8,7 C 10,8 C 0,0 km/h (0 Bft)
17.06.2014 01:00 10,8 C 26,3 C 11,9 C 10,8 C 10,8 C 0,0 C 87 % 86 % 0 % 1018,4 hPa 0,0 l/m 0,0 km/h (0 Bft) W-NW 292 0 min 0,0 UV-I 8,7 C 10,8 C 0,0 km/h (0 Bft)
17.06.2014 01:05 10,7 C 26,3 C 11,9 C 10,7 C 10,7 C 0,0 C 87 % 86 % 0 % 1018,4 hPa 0,0 l/m 0,0 km/h (0 Bft) W-SW 247 0 min 0,0 UV-I 8,6 C 10,7 C 0,0 km/h (0 Bft)
17.06.2014 01:10 10,6 C 26,2 C 11,9 C 10,6 C 10,6 C 0,0 C 87 % 86 % 0 % 1018,4 hPa 0,0 l/m 0,0 km/h (0 Bft) W 270 0 min 0,0 UV-I 8,5 C 10,6 C 0,0 km/h (0 Bft)
17.06.2014 01:15 10,7 C 26,2 C 11,9 C 10,7 C 10,6 C 0,0 C 87 % 86 % 0 % 1018,4 hPa 0,0 l/m 0,0 km/h (0 Bft) W 270 0 min 0,0 UV-I 8,6 C 10,6 C 0,0 km/h (0 Bft)
17.06.2014 01:20 10,5 C 26,3 C 11,7 C 10,6 C 10,6 C 0,1 C 87 % 86 % 0 % 1018,4 hPa 0,0 l/m 0,0 km/h (0 Bft) W 270 0 min 0,0 UV-I 8,4 C 10,6 C 0,0 km/h (0 Bft)
17.06.2014 01:25 10,5 C 26,3 C 11,6 C 10,5 C 10,5 C 0,0 C 87 % 86 % 0 % 1018,4 hPa 0,0 l/m 0,0 km/h (0 Bft) S-SW 202 0 min 0,0 UV-I 8,4 C 10,5 C 0,0 km/h (0 Bft)
17.06.2014 01:30 10,5 C 26,3 C 11,6 C 10,5 C 10,4 C 0,0 C 87 % 87 % 0 % 1018,4 hPa 0,0 l/m 0,0 km/h (0 Bft) S 180 0 min 0,0 UV-I 8,4 C 10,4 C 0,0 km/h (0 Bft)
17.06.2014 01:35 10,4 C 26,2 C 11,6 C 10,4 C 10,4 C 0,0 C 87 % 87 % 0 % 1018,4 hPa 0,0 l/m 0,0 km/h (0 Bft) SW 225 0 min 0,0 UV-I 8,3 C 10,4 C 0,0 km/h (0 Bft)
17.06.2014 01:40 10,3 C 26,2 C 11,5 C 10,3 C 10,3 C 0,0 C 87 % 87 % 0 % 1018,4 hPa 0,0 l/m 0,0 km/h (0 Bft) W-SW 247 0 min 0,0 UV-I 8,2 C 10,3 C 0,0 km/h (0 Bft)
17.06.2014 01:45 10,2 C 26,2 C 11,5 C 10,3 C 10,3 C 0,1 C 87 % 87 % 0 % 1018,4 hPa 0,0 l/m 0,0 km/h (0 Bft) W-SW 247 0 min 0,0 UV-I 8,1 C 10,3 C 0,0 km/h (0 Bft)
17.06.2014 01:50 10,2 C 26,2 C 11,4 C 10,3 C 10,3 C 0,1 C 87 % 87 % 0 % 1018,4 hPa 0,0 l/m 0,0 km/h (0 Bft) W-SW 247 0 min 0,0 UV-I 8,1 C 10,3 C 0,0 km/h (0 Bft)
17.06.2014 01:55 10,1 C 26,2 C 11,5 C 10,2 C 10,2 C 0,1 C 87 % 87 % 0 % 1018,4 hPa 0,0 l/m 0,0 km/h (0 Bft) W 270 0 min 0,0 UV-I 8,0 C 10,2 C 0,0 km/h (0 Bft)
17.06.2014 02:00 10,0 C 26,2 C 11,3 C 10,1 C 10,1 C 0,1 C 87 % 86 % 0 % 1018,2 hPa 0,0 l/m 0,0 km/h (0 Bft) W-SW 247 0 min 0,0 UV-I 7,9 C 10,1 C 0,0 km/h (0 Bft)
17.06.2014 02:05 10,0 C 26,2 C 11,2 C 10,0 C 10,0 C 0,0 C 87 % 86 % 0 % 1018,2 hPa 0,0 l/m 0,0 km/h (0 Bft) S 180 0 min 0,0 UV-I 7,9 C 10,0 C 0,0 km/h (0 Bft)
17.06.2014 02:10 9,9 C 26,2 C 11,2 C 9,9 C 9,9 C 0,0 C 87 % 86 % 0 % 1018,2 hPa 0,0 l/m 0,0 km/h (0 Bft) S 180 0 min 0,0 UV-I 7,8 C 9,9 C 0,0 km/h (0 Bft)
17.06.2014 02:15 9,8 C 26,2 C 11,2 C 9,9 C 9,9 C 0,1 C 87 % 86 % 0 % 1018,2 hPa 0,0 l/m 0,0 km/h (0 Bft) SO 135 0 min 0,0 UV-I 7,7 C 9,9 C 0,0 km/h (0 Bft)
17.06.2014 02:20 9,8 C 26,2 C 11,0 C 9,8 C 9,8 C 0,0 C 87 % 86 % 0 % 1018,6 hPa 0,0 l/m 0,0 km/h (0 Bft) O-NO 67 0 min 0,0 UV-I 7,7 C 9,8 C 0,0 km/h (0 Bft)
17.06.2014 02:25 9,7 C 26,2 C 11,1 C 9,7 C 9,7 C 0,0 C 87 % 86 % 0 % 1018,6 hPa 0,0 l/m 0,0 km/h (0 Bft) O-NO 67 0 min 0,0 UV-I 7,6 C 9,7 C 0,0 km/h (0 Bft)
17.06.2014 02:30 9,6 C 26,1 C 10,9 C 9,7 C 9,7 C 0,1 C 88 % 86 % 0 % 1018,6 hPa 0,0 l/m 0,0 km/h (0 Bft) NO 45 0 min 0,0 UV-I 7,7 C 9,7 C 0,0 km/h (0 Bft)
17.06.2014 02:35 9,7 C 26,1 C 10,8 C 9,7 C 9,6 C 0,0 C 88 % 86 % 0 % 1018,6 hPa 0,0 l/m 0,0 km/h (0 Bft) O-NO 67 0 min 0,0 UV-I 7,8 C 9,6 C 0,0 km/h (0 Bft)
17.06.2014 02:40 9,5 C 26,1 C 10,8 C 9,6 C 9,6 C 0,1 C 88 % 86 % 0 % 1018,4 hPa 0,0 l/m 0,0 km/h (0 Bft) SW 225 0 min 0,0 UV-I 7,6 C 9,6 C 0,0 km/h (0 Bft)
17.06.2014 02:45 9,5 C 26,1 C 10,8 C 9,5 C 9,4 C 0,0 C 88 % 86 % 0 % 1018,4 hPa 0,0 l/m 0,0 km/h (0 Bft) SW 225 0 min 0,0 UV-I 7,6 C 9,4 C 0,0 km/h (0 Bft)
17.06.2014 02:50 9,3 C 26,1 C 10,6 C 9,3 C 9,3 C 0,0 C 87 % 87 % 0 % 1018,4 hPa 0,0 l/m 0,0 km/h (0 Bft) SW 225 0 min 0,0 UV-I 7,2 C 9,3 C 0,0 km/h (0 Bft)
17.06.2014 02:55 9,3 C 26,0 C 10,7 C 9,3 C 9,2 C 0,0 C 87 % 87 % 0 % 1018,4 hPa 0,0 l/m 0,0 km/h (0 Bft) S 180 0 min 0,0 UV-I 7,2 C 9,2 C 0,0 km/h (0 Bft)
17.06.2014 03:00 9,2 C 26,0 C 10,5 C 9,2 C 9,1 C 0,0 C 87 % 87 % 0 % 1018,7 hPa 0,0 l/m 0,0 km/h (0 Bft) W-SW 247 0 min 0,0 UV-I 7,2 C 9,1 C 0,0 km/h (0 Bft)
17.06.2014 03:05 9,2 C 26,0 C 10,5 C 9,2 C 9,1 C 0,0 C 87 % 87 % 0 % 1018,7 hPa 0,0 l/m 0,0 km/h (0 Bft) SW 225 0 min 0,0 UV-I 7,2 C 9,1 C 0,0 km/h (0 Bft)
17.06.2014 03:10 9,0 C 26,0 C 10,4 C 9,1 C 9,1 C 0,1 C 87 % 87 % 0 % 1018,7 hPa 0,0 l/m 0,0 km/h (0 Bft) W-NW 292 0 min 0,0 UV-I 7,0 C 9,1 C 0,0 km/h (0 Bft)
17.06.2014 03:15 9,1 C 26,1 C 10,4 C 9,1 C 9,1 C 0,0 C 87 % 87 % 0 % 1018,7 hPa 0,0 l/m 0,0 km/h (0 Bft) NW 315 0 min 0,0 UV-I 7,1 C 9,1 C 0,0 km/h (0 Bft)
17.06.2014 03:20 8,9 C 26,1 C 10,3 C 9,0 C 9,0 C 0,1 C 87 % 87 % 0 % 1018,9 hPa 0,0 l/m 0,0 km/h (0 Bft) W 270 0 min 0,0 UV-I 6,9 C 9,0 C 0,0 km/h (0 Bft)
17.06.2014 03:25 8,9 C 26,1 C 10,3 C 9,0 C 9,0 C 0,1 C 88 % 87 % 0 % 1018,9 hPa 0,0 l/m 0,0 km/h (0 Bft) W-SW 247 0 min 0,0 UV-I 7,0 C 9,0 C 0,0 km/h (0 Bft)
17.06.2014 03:30 8,8 C 26,1 C 10,3 C 9,0 C 9,0 C 0,2 C 88 % 87 % 0 % 1018,9 hPa 0,0 l/m 0,0 km/h (0 Bft) S-SW 202 0 min 0,0 UV-I 6,9 C 9,0 C 0,0 km/h (0 Bft)
17.06.2014 03:35 8,9 C 26,1 C 10,3 C 9,1 C 9,1 C 0,2 C 88 % 87 % 0 % 1018,9 hPa 0,0 l/m 0,0 km/h (0 Bft) S-SW 202 0 min 0,0 UV-I 7,0 C 9,1 C 0,0 km/h (0 Bft)
17.06.2014 03:40 8,8 C 26,1 C 10,3 C 9,1 C 9,1 C 0,3 C 88 % 87 % 0 % 1018,6 hPa 0,0 l/m 0,0 km/h (0 Bft) O-NO 67 0 min 0,0 UV-I 6,9 C 9,1 C 0,0 km/h (0 Bft)
17.06.2014 03:45 8,8 C 26,1 C 10,3 C 9,1 C 9,1 C 0,3 C 88 % 87 % 0 % 1018,6 hPa 0,0 l/m 0,0 km/h (0 Bft) O-NO 67 0 min 0,0 UV-I 6,9 C 9,1 C 0,0 km/h (0 Bft)
17.06.2014 03:50 8,9 C 26,1 C 10,3 C 9,1 C 9,1 C 0,2 C 88 % 87 % 0 % 1018,6 hPa 0,0 l/m 0,0 km/h (0 Bft) O-NO 67 0 min 0,0 UV-I 7,0 C 9,1 C 0,0 km/h (0 Bft)
17.06.2014 03:55 8,8 C 26,1 C 10,3 C 9,1 C 9,1 C 0,3 C 88 % 87 % 0 % 1018,6 hPa 0,0 l/m 0,0 km/h (0 Bft) O-NO 67 0 min 0,0 UV-I 6,9 C 9,1 C 0,0 km/h (0 Bft)
17.06.2014 04:00 8,8 C 26,1 C 10,3 C 9,0 C 9,0 C 0,2 C 88 % 87 % 0 % 1018,7 hPa 0,0 l/m 0,0 km/h (0 Bft) O-NO 67 0 min 0,0 UV-I 6,9 C 9,0 C 0,0 km/h (0 Bft)
17.06.2014 04:05 8,7 C 26,1 C 10,1 C 8,9 C 8,9 C 0,2 C 88 % 87 % 0 % 1018,7 hPa 0,0 l/m 0,0 km/h (0 Bft) O-NO 67 0 min 0,0 UV-I 6,8 C 8,9 C 0,0 km/h (0 Bft)
17.06.2014 04:10 8,7 C 26,1 C 10,0 C 8,8 C 8,8 C 0,1 C 88 % 87 % 0 % 1018,7 hPa 0,0 l/m 0,0 km/h (0 Bft) O-NO 67 0 min 0,0 UV-I 6,8 C 8,8 C 0,0 km/h (0 Bft)
17.06.2014 04:15 8,7 C 26,0 C 10,1 C 8,7 C 8,7 C 0,0 C 88 % 87 % 0 % 1018,7 hPa 0,0 l/m 0,0 km/h (0 Bft) SW 225 0 min 0,0 UV-I 6,8 C 8,7 C 0,0 km/h (0 Bft)
17.06.2014 04:20 8,6 C 26,0 C 10,0 C 8,6 C 8,6 C 0,0 C 88 % 87 % 0 % 1018,6 hPa 0,0 l/m 0,0 km/h (0 Bft) W 270 0 min 0,0 UV-I 6,7 C 8,6 C 0,0 km/h (0 Bft)
17.06.2014 04:25 8,5 C 26,0 C 9,9 C 8,6 C 8,6 C 0,1 C 88 % 87 % 0 % 1018,6 hPa 0,0 l/m 0,0 km/h (0 Bft) W-SW 247 0 min 0,0 UV-I 6,6 C 8,6 C 0,0 km/h (0 Bft)
17.06.2014 04:30 8,4 C 26,0 C 9,9 C 8,5 C 8,5 C 0,1 C 88 % 87 % 0 % 1018,6 hPa 0,0 l/m 0,0 km/h (0 Bft) W-SW 247 0 min 0,0 UV-I 6,5 C 8,5 C 0,0 km/h (0 Bft)
17.06.2014 04:35 8,4 C 26,0 C 9,9 C 8,5 C 8,5 C 0,1 C 88 % 87 % 0 % 1018,6 hPa 0,0 l/m 0,0 km/h (0 Bft) SW 225 0 min 0,0 UV-I 6,5 C 8,5 C 0,0 km/h (0 Bft)
17.06.2014 04:40 8,3 C 26,0 C 9,9 C 8,6 C 8,6 C 0,3 C 88 % 87 % 0 % 1018,9 hPa 0,0 l/m 0,0 km/h (0 Bft) W-NW 292 0 min 0,0 UV-I 6,4 C 8,6 C 0,0 km/h (0 Bft)
17.06.2014 04:45 8,3 C 26,0 C 9,9 C 8,6 C 8,6 C 0,3 C 88 % 87 % 0 % 1018,9 hPa 0,0 l/m 0,0 km/h (0 Bft) W 270 0 min 0,0 UV-I 6,4 C 8,6 C 0,0 km/h (0 Bft)
17.06.2014 04:50 8,3 C 26,0 C 10,0 C 8,8 C 8,8 C 0,5 C 89 % 88 % 0 % 1018,9 hPa 0,0 l/m 0,0 km/h (0 Bft) W-SW 247 0 min 0,0 UV-I 6,6 C 8,8 C 0,0 km/h (0 Bft)
17.06.2014 04:55 8,3 C 25,9 C 10,1 C 9,0 C 9,0 C 0,7 C 89 % 88 % 0 % 1018,9 hPa 0,0 l/m 0,0 km/h (0 Bft) W-SW 247 0 min 0,0 UV-I 6,6 C 9,0 C 0,0 km/h (0 Bft)
17.06.2014 05:00 8,5 C 26,0 C 10,1 C 9,3 C 9,3 C 0,8 C 89 % 88 % 0 % 1018,9 hPa 0,0 l/m 0,0 km/h (0 Bft) W-SW 247 0 min 0,0 UV-I 6,8 C 9,3 C 0,0 km/h (0 Bft)
17.06.2014 05:05 8,4 C 26,0 C 10,3 C 9,4 C 9,4 C 1,0 C 89 % 88 % 0 % 1018,9 hPa 0,0 l/m 0,0 km/h (0 Bft) W-NW 292 0 min 0,0 UV-I 6,7 C 9,4 C 0,0 km/h (0 Bft)
17.06.2014 05:10 8,5 C 25,9 C 10,3 C 9,6 C 9,6 C 1,1 C 89 % 88 % 29 % 1018,9 hPa 0,0 l/m 0,0 km/h (0 Bft) SW 225 5 min 0,0 UV-I 6,8 C 9,6 C 0,0 km/h (0 Bft)
17.06.2014 05:15 8,5 C 25,9 C 10,4 C 9,8 C 9,8 C 1,3 C 89 % 88 % 34 % 1018,9 hPa 0,0 l/m 0,0 km/h (0 Bft) SW 225 5 min 0,0 UV-I 6,8 C 9,8 C 0,0 km/h (0 Bft)
17.06.2014 05:20 8,7 C 25,9 C 10,5 C 9,9 C 9,9 C 1,2 C 89 % 88 % 32 % 1019,0 hPa 0,0 l/m 0,0 km/h (0 Bft) S-SW 202 5 min 0,0 UV-I 7,0 C 9,9 C 0,0 km/h (0 Bft)
17.06.2014 05:25 8,7 C 25,9 C 10,5 C 10,0 C 10,0 C 1,3 C 89 % 88 % 34 % 1019,0 hPa 0,0 l/m 0,0 km/h (0 Bft) S-SW 202 5 min 0,0 UV-I 7,0 C 10,0 C 0,0 km/h (0 Bft)
17.06.2014 05:30 8,8 C 25,8 C 10,7 C 10,0 C 10,0 C 1,2 C 90 % 88 % 32 % 1019,0 hPa 0,0 l/m 0,0 km/h (0 Bft) W-SW 247 5 min 0,0 UV-I 7,3 C 10,0 C 0,0 km/h (0 Bft)
17.06.2014 05:35 8,9 C 25,8 C 10,7 C 10,1 C 10,1 C 1,2 C 90 % 88 % 32 % 1019,0 hPa 0,0 l/m 0,0 km/h (0 Bft) W-SW 247 5 min 0,0 UV-I 7,4 C 10,1 C 0,0 km/h (0 Bft)
17.06.2014 05:40 9,1 C 25,8 C 10,7 C 10,2 C 10,2 C 1,1 C 90 % 88 % 29 % 1018,9 hPa 0,0 l/m 0,0 km/h (0 Bft) N-NO 22 5 min 0,0 UV-I 7,5 C 10,2 C 0,0 km/h (0 Bft)
17.06.2014 05:45 9,1 C 25,8 C 10,7 C 10,3 C 10,3 C 1,2 C 90 % 88 % 32 % 1018,9 hPa 0,0 l/m 0,0 km/h (0 Bft) W-SW 247 5 min 0,0 UV-I 7,5 C 10,3 C 0,0 km/h (0 Bft)
17.06.2014 05:50 9,1 C 25,8 C 10,8 C 10,4 C 10,4 C 1,3 C 90 % 88 % 34 % 1018,9 hPa 0,0 l/m 0,0 km/h (0 Bft) W-SW 247 5 min 0,0 UV-I 7,5 C 10,4 C 0,0 km/h (0 Bft)
17.06.2014 05:55 9,3 C 25,8 C 10,9 C 10,4 C 10,4 C 1,1 C 90 % 88 % 29 % 1018,9 hPa 0,0 l/m 0,0 km/h (0 Bft) SW 225 0 min 0,0 UV-I 7,7 C 10,4 C 0,0 km/h (0 Bft)
17.06.2014 06:00 9,3 C 25,8 C 11,1 C 10,5 C 10,5 C 1,2 C 90 % 88 % 32 % 1019,2 hPa 0,0 l/m 0,0 km/h (0 Bft) W-SW 247 0 min 0,0 UV-I 7,7 C 10,5 C 0,0 km/h (0 Bft)
17.06.2014 06:05 9,3 C 25,8 C 11,0 C 10,5 C 10,5 C 1,2 C 90 % 88 % 32 % 1019,2 hPa 0,0 l/m 0,0 km/h (0 Bft) S 180 0 min 0,0 UV-I 7,7 C 10,5 C 0,0 km/h (0 Bft)
17.06.2014 06:10 9,5 C 25,8 C 11,1 C 10,6 C 10,6 C 1,1 C 90 % 88 % 29 % 1019,2 hPa 0,0 l/m 0,0 km/h (0 Bft) N-NO 22 0 min 0,0 UV-I 7,9 C 10,6 C 0,0 km/h (0 Bft)
17.06.2014 06:15 9,5 C 25,8 C 11,1 C 10,7 C 10,7 C 1,2 C 90 % 88 % 32 % 1019,2 hPa 0,0 l/m 0,0 km/h (0 Bft) NO 45 0 min 0,0 UV-I 7,9 C 10,7 C 0,0 km/h (0 Bft)
17.06.2014 06:20 9,6 C 25,8 C 11,2 C 10,8 C 10,8 C 1,2 C 90 % 88 % 32 % 1019,2 hPa 0,0 l/m 0,0 km/h (0 Bft) S 180 0 min 0,0 UV-I 8,0 C 10,8 C 0,0 km/h (0 Bft)
17.06.2014 06:25 9,6 C 25,8 C 11,2 C 10,8 C 10,8 C 1,2 C 90 % 88 % 32 % 1019,2 hPa 0,0 l/m 0,0 km/h (0 Bft) W-SW 247 0 min 0,0 UV-I 8,0 C 10,8 C 0,0 km/h (0 Bft)
17.06.2014 06:30 9,8 C 25,8 C 11,3 C 10,9 C 10,9 C 1,1 C 90 % 88 % 29 % 1019,2 hPa 0,0 l/m 0,0 km/h (0 Bft) S-SW 202 0 min 0,0 UV-I 8,2 C 10,9 C 0,0 km/h (0 Bft)
17.06.2014 06:35 9,9 C 25,7 C 11,5 C 11,0 C 11,0 C 1,1 C 90 % 88 % 29 % 1019,2 hPa 0,0 l/m 0,0 km/h (0 Bft) W 270 0 min 0,0 UV-I 8,3 C 11,0 C 0,0 km/h (0 Bft)
17.06.2014 06:40 9,9 C 25,6 C 11,5 C 11,0 C 11,0 C 1,1 C 90 % 87 % 29 % 1019,0 hPa 0,0 l/m 0,0 km/h (0 Bft) W 270 0 min 0,0 UV-I 8,3 C 11,0 C 0,0 km/h (0 Bft)
17.06.2014 06:45 9,9 C 25,6 C 11,5 C 11,0 C 11,0 C 1,1 C 90 % 87 % 29 % 1019,0 hPa 0,0 l/m 0,0 km/h (0 Bft) W-SW 247 0 min 0,0 UV-I 8,3 C 11,0 C 0,0 km/h (0 Bft)
17.06.2014 06:50 10,0 C 25,6 C 11,6 C 11,1 C 11,1 C 1,1 C 91 % 87 % 29 % 1019,0 hPa 0,0 l/m 0,0 km/h (0 Bft) W-SW 247 0 min 0,0 UV-I 8,6 C 11,1 C 0,0 km/h (0 Bft)
17.06.2014 06:55 10,0 C 25,6 C 11,6 C 11,2 C 11,2 C 1,2 C 91 % 87 % 32 % 1019,0 hPa 0,0 l/m 0,0 km/h (0 Bft) W 270 0 min 0,0 UV-I 8,6 C 11,2 C 0,0 km/h (0 Bft)
17.06.2014 07:00 10,0 C 25,6 C 11,6 C 11,2 C 11,2 C 1,2 C 91 % 87 % 32 % 1019,4 hPa 0,0 l/m 0,0 km/h (0 Bft) W-SW 247 0 min 0,0 UV-I 8,6 C 11,2 C 0,0 km/h (0 Bft)
17.06.2014 07:05 10,1 C 25,6 C 11,7 C 11,4 C 11,4 C 1,3 C 91 % 87 % 34 % 1019,4 hPa 0,0 l/m 0,0 km/h (0 Bft) W-SW 247 0 min 0,0 UV-I 8,7 C 11,4 C 0,0 km/h (0 Bft)
17.06.2014 07:10 10,3 C 25,6 C 11,9 C 11,5 C 11,5 C 1,2 C 91 % 87 % 32 % 1019,4 hPa 0,0 l/m 0,0 km/h (0 Bft) W-NW 292 0 min 0,0 UV-I 8,9 C 11,5 C 0,0 km/h (0 Bft)
17.06.2014 07:15 10,4 C 25,6 C 11,8 C 11,6 C 11,6 C 1,2 C 91 % 87 % 32 % 1019,4 hPa 0,0 l/m 0,0 km/h (0 Bft) W-SW 247 0 min 0,0 UV-I 9,0 C 11,6 C 0,0 km/h (0 Bft)
17.06.2014 07:20 10,4 C 25,5 C 12,1 C 11,8 C 11,8 C 1,4 C 91 % 87 % 37 % 1019,4 hPa 0,0 l/m 0,0 km/h (0 Bft) W 270 0 min 0,0 UV-I 9,0 C 11,8 C 0,0 km/h (0 Bft)
17.06.2014 07:25 10,5 C 25,5 C 12,0 C 12,0 C 12,0 C 1,5 C 91 % 87 % 39 % 1019,4 hPa 0,0 l/m 0,0 km/h (0 Bft) W-SW 247 0 min 0,0 UV-I 9,1 C 12,0 C 0,0 km/h (0 Bft)
17.06.2014 07:30 10,7 C 25,5 C 12,2 C 12,3 C 12,3 C 1,6 C 91 % 87 % 42 % 1019,4 hPa 0,0 l/m 0,0 km/h (0 Bft) S-SW 202 0 min 0,0 UV-I 9,3 C 12,3 C 0,0 km/h (0 Bft)
17.06.2014 07:35 10,8 C 25,5 C 12,3 C 12,4 C 12,4 C 1,6 C 91 % 87 % 42 % 1019,4 hPa 0,0 l/m 0,0 km/h (0 Bft) S-SW 202 0 min 0,0 UV-I 9,4 C 12,4 C 0,0 km/h (0 Bft)
17.06.2014 07:40 11,0 C 25,5 C 12,4 C 12,6 C 12,6 C 1,6 C 91 % 88 % 42 % 1019,8 hPa 0,0 l/m 0,0 km/h (0 Bft) S-SW 202 0 min 0,0 UV-I 9,6 C 12,6 C 0,0 km/h (0 Bft)
17.06.2014 07:45 11,1 C 25,5 C 12,7 C 12,8 C 12,8 C 1,7 C 91 % 87 % 45 % 1019,8 hPa 0,0 l/m 0,0 km/h (0 Bft) S-SW 202 0 min 0,0 UV-I 9,7 C 12,8 C 0,0 km/h (0 Bft)
17.06.2014 07:50 11,3 C 25,5 C 12,8 C 13,4 C 13,4 C 2,1 C 91 % 87 % 55 % 1019,8 hPa 0,0 l/m 0,0 km/h (0 Bft) S-SW 202 0 min 0,0 UV-I 9,9 C 13,4 C 0,0 km/h (0 Bft)
17.06.2014 07:55 11,5 C 25,5 C 13,1 C 14,1 C 14,1 C 2,6 C 91 % 87 % 68 % 1019,8 hPa 0,0 l/m 0,0 km/h (0 Bft) W-SW 247 0 min 0,0 UV-I 10,1 C 14,1 C 0,0 km/h (0 Bft)
17.06.2014 08:00 11,7 C 25,5 C 13,2 C 14,8 C 14,8 C 3,1 C 91 % 87 % 82 % 1019,2 hPa 0,0 l/m 0,3 km/h (0 Bft) SW 225 0 min 0,0 UV-I 10,3 C 14,8 C 2,4 km/h (1 Bft)
17.06.2014 08:05 11,9 C 25,4 C 13,4 C 15,6 C 15,6 C 3,7 C 91 % 87 % 97 % 1019,2 hPa 0,0 l/m 0,3 km/h (0 Bft) W-NW 292 5 min 0,0 UV-I 10,5 C 15,6 C 0,0 km/h (0 Bft)
17.06.2014 08:10 12,1 C 25,4 C 13,7 C 16,4 C 16,4 C 4,3 C 91 % 86 % 100 % 1019,2 hPa 0,0 l/m 0,2 km/h (0 Bft) W-SW 247 5 min 0,0 UV-I 10,7 C 16,4 C 0,0 km/h (0 Bft)
17.06.2014 08:15 12,3 C 25,4 C 13,9 C 17,1 C 17,1 C 4,8 C 91 % 86 % 100 % 1019,2 hPa 0,0 l/m 0,3 km/h (0 Bft) SW 225 5 min 0,0 UV-I 10,9 C 17,1 C 0,0 km/h (0 Bft)
17.06.2014 08:20 12,6 C 25,4 C 13,9 C 17,6 C 17,6 C 5,0 C 91 % 86 % 100 % 1019,7 hPa 0,0 l/m 0,3 km/h (0 Bft) W-SW 247 5 min 0,0 UV-I 11,2 C 17,6 C 2,3 km/h (1 Bft)
17.06.2014 08:25 12,9 C 25,4 C 14,1 C 17,9 C 17,9 C 5,0 C 91 % 86 % 100 % 1019,7 hPa 0,0 l/m 0,3 km/h (0 Bft) W-NW 292 5 min 0,0 UV-I 11,5 C 17,9 C 1,6 km/h (1 Bft)
17.06.2014 08:30 13,2 C 25,4 C 14,4 C 19,1 C 19,1 C 5,9 C 91 % 85 % 100 % 1019,7 hPa 0,0 l/m 0,8 km/h (0 Bft) SW 225 5 min 0,0 UV-I 11,8 C 19,1 C 3,1 km/h (1 Bft)
17.06.2014 08:35 13,5 C 25,3 C 14,7 C 20,0 C 20,0 C 6,5 C 91 % 85 % 100 % 1019,7 hPa 0,0 l/m 1,0 km/h (0 Bft) W-SW 247 5 min 0,0 UV-I 12,1 C 20,0 C 0,0 km/h (0 Bft)
17.06.2014 08:40 13,7 C 25,3 C 14,7 C 20,3 C 20,3 C 6,6 C 90 % 85 % 100 % 1019,7 hPa 0,0 l/m 0,8 km/h (0 Bft) S 180 5 min 0,0 UV-I 12,1 C 20,3 C 3,9 km/h (1 Bft)
17.06.2014 08:45 13,9 C 25,2 C 14,5 C 19,6 C 19,6 C 5,7 C 89 % 85 % 100 % 1019,7 hPa 0,0 l/m 1,0 km/h (0 Bft) W-SW 247 5 min 0,0 UV-I 12,1 C 19,6 C 2,6 km/h (1 Bft)
17.06.2014 08:50 13,8 C 25,2 C 14,4 C 18,1 C 18,1 C 4,3 C 88 % 84 % 100 % 1019,7 hPa 0,0 l/m 0,8 km/h (0 Bft) W-NW 292 5 min 0,0 UV-I 11,8 C 18,1 C 0,0 km/h (0 Bft)
17.06.2014 08:55 13,9 C 25,2 C 14,4 C 17,6 C 17,6 C 3,7 C 87 % 84 % 97 % 1019,7 hPa 0,0 l/m 0,6 km/h (0 Bft) SO 135 5 min 0,0 UV-I 11,8 C 17,6 C 0,0 km/h (0 Bft)
17.06.2014 09:00 13,9 C 25,2 C 14,5 C 17,3 C 17,3 C 3,4 C 86 % 84 % 89 % 1020,1 hPa 0,0 l/m 0,5 km/h (0 Bft) NW 315 5 min 0,0 UV-I 11,6 C 17,3 C 0,0 km/h (0 Bft)
17.06.2014 09:05 14,0 C 25,2 C 14,7 C 17,5 C 17,5 C 3,5 C 86 % 84 % 92 % 1020,1 hPa 0,0 l/m 0,3 km/h (0 Bft) W 270 5 min 0,0 UV-I 11,7 C 17,5 C 0,0 km/h (0 Bft)
17.06.2014 09:10 14,3 C 25,1 C 15,1 C 18,1 C 18,1 C 3,8 C 86 % 84 % 100 % 1020,1 hPa 0,0 l/m 0,2 km/h (0 Bft) N 360 5 min 0,0 UV-I 12,0 C 18,1 C 2,4 km/h (1 Bft)
17.06.2014 09:15 14,5 C 25,1 C 15,1 C 18,7 C 18,7 C 4,2 C 85 % 84 % 100 % 1020,1 hPa 0,0 l/m 0,3 km/h (0 Bft) S-SW 202 5 min 0,0 UV-I 12,0 C 18,7 C 2,4 km/h (1 Bft)
17.06.2014 09:20 14,8 C 25,1 C 15,5 C 19,7 C 19,7 C 4,9 C 85 % 83 % 100 % 1020,1 hPa 0,0 l/m 0,6 km/h (0 Bft) W 270 5 min 0,0 UV-I 12,3 C 19,7 C 3,2 km/h (1 Bft)
17.06.2014 09:25 15,0 C 25,1 C 15,6 C 19,9 C 19,9 C 4,9 C 84 % 83 % 100 % 1020,1 hPa 0,0 l/m 1,0 km/h (0 Bft) W-SW 247 5 min 0,0 UV-I 12,3 C 19,9 C 2,7 km/h (1 Bft)
17.06.2014 09:30 15,5 C 25,1 C 15,8 C 20,7 C 20,7 C 5,2 C 82 % 83 % 100 % 1020,1 hPa 0,0 l/m 0,6 km/h (0 Bft) SW 225 5 min 0,0 UV-I 12,4 C 20,7 C 1,8 km/h (1 Bft)
17.06.2014 09:35 15,6 C 25,1 C 15,9 C 20,7 C 20,7 C 5,1 C 82 % 82 % 100 % 1020,1 hPa 0,0 l/m 0,2 km/h (0 Bft) S-SW 202 5 min 0,0 UV-I 12,5 C 20,7 C 1,8 km/h (1 Bft)
17.06.2014 09:40 15,9 C 25,1 C 15,9 C 20,6 C 20,6 C 4,7 C 81 % 81 % 100 % 1019,7 hPa 0,0 l/m 0,2 km/h (0 Bft) W 270 5 min 0,0 UV-I 12,6 C 20,6 C 0,0 km/h (0 Bft)
17.06.2014 09:45 16,1 C 25,1 C 15,9 C 20,6 C 20,6 C 4,5 C 80 % 81 % 100 % 1019,7 hPa 0,0 l/m 0,0 km/h (0 Bft) W-NW 292 5 min 0,0 UV-I 12,6 C 20,6 C 0,0 km/h (0 Bft)
17.06.2014 09:50 16,3 C 25,1 C 15,8 C 21,2 C 21,2 C 4,9 C 79 % 81 % 100 % 1019,7 hPa 0,0 l/m 0,2 km/h (0 Bft) SW 225 5 min 0,0 UV-I 12,6 C 21,2 C 1,8 km/h (1 Bft)
17.06.2014 09:55 16,3 C 25,1 C 15,9 C 21,8 C 21,8 C 5,5 C 78 % 81 % 100 % 1019,7 hPa 0,0 l/m 0,5 km/h (0 Bft) W-SW 247 5 min 0,0 UV-I 12,5 C 21,8 C 3,5 km/h (1 Bft)
17.06.2014 10:00 16,5 C 25,1 C 16,1 C 22,9 C 22,9 C 6,4 C 77 % 80 % 100 % 1020,2 hPa 0,0 l/m 0,6 km/h (0 Bft) O-NO 67 5 min 0,0 UV-I 12,5 C 22,9 C 0,0 km/h (0 Bft)
17.06.2014 10:05 16,6 C 25,1 C 16,3 C 23,7 C 23,7 C 7,1 C 77 % 80 % 100 % 1020,2 hPa 0,0 l/m 0,6 km/h (0 Bft) S-SW 202 5 min 0,0 UV-I 12,5 C 23,7 C 3,5 km/h (1 Bft)
17.06.2014 10:10 16,7 C 25,1 C 16,2 C 22,5 C 22,5 C 5,8 C 76 % 79 % 100 % 1020,2 hPa 0,0 l/m 0,6 km/h (0 Bft) W-SW 247 5 min 0,0 UV-I 12,4 C 22,5 C 0,0 km/h (0 Bft)
17.06.2014 10:15 16,8 C 25,1 C 16,2 C 22,0 C 22,0 C 5,2 C 77 % 79 % 100 % 1020,2 hPa 0,0 l/m 0,6 km/h (0 Bft) N 360 5 min 0,0 UV-I 12,7 C 22,0 C 2,7 km/h (1 Bft)
17.06.2014 10:20 16,8 C 25,1 C 16,5 C 21,2 C 21,2 C 4,4 C 75 % 79 % 100 % 1019,8 hPa 0,0 l/m 1,1 km/h (1 Bft) NW 315 5 min 0,0 UV-I 12,3 C 21,2 C 0,0 km/h (0 Bft)
17.06.2014 10:25 16,8 C 25,1 C 16,7 C 21,6 C 21,6 C 4,8 C 75 % 79 % 100 % 1019,8 hPa 0,0 l/m 1,1 km/h (1 Bft) N-NW 337 5 min 0,0 UV-I 12,3 C 21,6 C 2,4 km/h (1 Bft)
17.06.2014 10:30 17,0 C 25,1 C 16,9 C 23,4 C 23,4 C 6,4 C 75 % 78 % 100 % 1019,8 hPa 0,0 l/m 0,8 km/h (0 Bft) NW 315 5 min 0,0 UV-I 12,5 C 23,4 C 4,3 km/h (1 Bft)
17.06.2014 10:35 17,2 C 25,1 C 17,0 C 23,6 C 23,6 C 6,4 C 74 % 78 % 100 % 1019,8 hPa 0,0 l/m 1,0 km/h (0 Bft) S 180 5 min 0,0 UV-I 12,5 C 23,6 C 2,3 km/h (1 Bft)
17.06.2014 10:40 17,2 C 25,1 C 16,8 C 22,3 C 22,3 C 5,1 C 74 % 78 % 100 % 1019,9 hPa 0,0 l/m 1,1 km/h (1 Bft) SW 225 5 min 0,0 UV-I 12,5 C 22,3 C 4,8 km/h (1 Bft)
17.06.2014 10:45 17,2 C 25,1 C 16,6 C 21,5 C 21,5 C 4,3 C 73 % 77 % 100 % 1019,9 hPa 0,0 l/m 1,6 km/h (1 Bft) W-SW 247 5 min 0,0 UV-I 12,3 C 21,5 C 5,0 km/h (1 Bft)
17.06.2014 10:50 17,2 C 25,1 C 16,5 C 20,3 C 20,3 C 3,1 C 73 % 77 % 82 % 1019,9 hPa 0,0 l/m 1,0 km/h (0 Bft) SW 225 0 min 0,0 UV-I 12,3 C 20,3 C 1,6 km/h (1 Bft)
17.06.2014 10:55 17,2 C 25,1 C 16,4 C 19,8 C 19,8 C 2,6 C 73 % 77 % 68 % 1019,9 hPa 0,0 l/m 0,8 km/h (0 Bft) W 270 0 min 0,0 UV-I 12,3 C 19,8 C 0,0 km/h (0 Bft)
17.06.2014 11:00 17,0 C 25,1 C 16,4 C 19,1 C 19,1 C 2,1 C 73 % 77 % 55 % 1019,9 hPa 0,0 l/m 1,9 km/h (1 Bft) S-SW 202 0 min 0,0 UV-I 12,1 C 19,1 C 5,8 km/h (2 Bft)
17.06.2014 11:05 16,8 C 25,1 C 16,5 C 18,8 C 18,8 C 2,0 C 74 % 77 % 53 % 1019,9 hPa 0,0 l/m 2,7 km/h (1 Bft) SW 225 0 min 0,0 UV-I 12,1 C 18,8 C 4,3 km/h (1 Bft)
17.06.2014 11:10 16,7 C 25,1 C 16,5 C 18,5 C 18,5 C 1,8 C 74 % 77 % 47 % 1019,9 hPa 0,0 l/m 2,6 km/h (1 Bft) SW 225 0 min 0,0 UV-I 12,0 C 18,5 C 0,0 km/h (0 Bft)
17.06.2014 11:15 16,7 C 25,1 C 16,7 C 18,7 C 18,7 C 2,0 C 75 % 78 % 53 % 1019,9 hPa 0,0 l/m 2,4 km/h (1 Bft) W 270 0 min 0,0 UV-I 12,2 C 18,7 C 2,6 km/h (1 Bft)
17.06.2014 11:20 16,7 C 25,1 C 16,8 C 19,2 C 19,2 C 2,5 C 75 % 78 % 66 % 1020,1 hPa 0,0 l/m 1,6 km/h (1 Bft) NW 315 0 min 0,0 UV-I 12,2 C 19,2 C 3,4 km/h (1 Bft)
17.06.2014 11:25 16,8 C 25,1 C 16,8 C 19,5 C 19,5 C 2,7 C 75 % 78 % 71 % 1020,1 hPa 0,0 l/m 1,1 km/h (1 Bft) SW 225 0 min 0,0 UV-I 12,3 C 19,5 C 0,0 km/h (0 Bft)
17.06.2014 11:30 16,9 C 25,1 C 17,0 C 20,1 C 20,1 C 3,2 C 75 % 78 % 84 % 1020,1 hPa 0,0 l/m 1,4 km/h (1 Bft) SW 225 0 min 0,0 UV-I 12,4 C 20,1 C 1,9 km/h (1 Bft)
17.06.2014 11:35 17,1 C 25,1 C 17,1 C 20,3 C 20,3 C 3,2 C 75 % 78 % 84 % 1020,1 hPa 0,0 l/m 1,6 km/h (1 Bft) SW 225 0 min 0,0 UV-I 12,6 C 20,3 C 6,0 km/h (2 Bft)
17.06.2014 11:40 16,9 C 25,1 C 16,9 C 19,7 C 19,7 C 2,8 C 74 % 77 % 74 % 1020,1 hPa 0,0 l/m 2,7 km/h (1 Bft) S-SO 157 0 min 0,0 UV-I 12,2 C 19,7 C 6,8 km/h (2 Bft)
17.06.2014 11:45 16,7 C 25,1 C 16,8 C 19,1 C 19,1 C 2,4 C 75 % 77 % 63 % 1020,1 hPa 0,0 l/m 3,9 km/h (1 Bft) S 180 0 min 0,0 UV-I 12,2 C 19,1 C 4,3 km/h (1 Bft)
17.06.2014 11:50 16,5 C 25,1 C 16,7 C 18,8 C 18,8 C 2,3 C 76 % 77 % 61 % 1020,1 hPa 0,0 l/m 2,7 km/h (1 Bft) S-SW 202 0 min 0,0 UV-I 12,3 C 18,8 C 3,9 km/h (1 Bft)
17.06.2014 11:55 16,5 C 25,2 C 16,6 C 18,6 C 18,6 C 2,1 C 75 % 77 % 55 % 1020,1 hPa 0,0 l/m 2,1 km/h (1 Bft) SW 225 0 min 0,0 UV-I 12,1 C 18,6 C 1,8 km/h (1 Bft)
17.06.2014 12:00 16,5 C 25,2 C 16,6 C 18,7 C 18,7 C 2,2 C 76 % 77 % 58 % 1020,1 hPa 0,0 l/m 1,4 km/h (1 Bft) N-NO 22 0 min 0,0 UV-I 12,3 C 18,7 C 4,5 km/h (1 Bft)
17.06.2014 12:05 16,5 C 25,2 C 16,8 C 18,8 C 18,8 C 2,3 C 76 % 78 % 61 % 1020,1 hPa 0,0 l/m 1,1 km/h (1 Bft) S-SW 202 0 min 0,0 UV-I 12,3 C 18,8 C 1,8 km/h (1 Bft)
17.06.2014 12:10 16,6 C 25,2 C 16,9 C 19,2 C 19,2 C 2,6 C 76 % 78 % 68 % 1020,1 hPa 0,0 l/m 1,0 km/h (0 Bft) N-NW 337 0 min 0,0 UV-I 12,3 C 19,2 C 1,9 km/h (1 Bft)
17.06.2014 12:15 16,9 C 25,1 C 16,9 C 19,4 C 19,4 C 2,5 C 76 % 77 % 66 % 1020,1 hPa 0,0 l/m 0,8 km/h (0 Bft) NW 315 0 min 0,0 UV-I 12,6 C 19,4 C 1,9 km/h (1 Bft)
17.06.2014 12:20 17,1 C 25,1 C 16,9 C 19,7 C 19,7 C 2,6 C 75 % 76 % 68 % 1020,1 hPa 0,0 l/m 0,8 km/h (0 Bft) S-SW 202 0 min 0,0 UV-I 12,6 C 19,7 C 0,0 km/h (0 Bft)
17.06.2014 12:25 17,1 C 25,1 C 17,1 C 19,9 C 19,9 C 2,8 C 75 % 76 % 74 % 1020,1 hPa 0,0 l/m 0,6 km/h (0 Bft) O 90 0 min 0,0 UV-I 12,6 C 19,9 C 0,0 km/h (0 Bft)
17.06.2014 12:30 17,2 C 25,1 C 17,0 C 20,0 C 20,0 C 2,8 C 73 % 75 % 74 % 1020,1 hPa 0,0 l/m 0,6 km/h (0 Bft) N-NW 337 0 min 0,0 UV-I 12,3 C 20,0 C 3,2 km/h (1 Bft)
17.06.2014 12:35 17,2 C 25,1 C 17,0 C 19,9 C 19,9 C 2,7 C 73 % 75 % 71 % 1020,1 hPa 0,0 l/m 0,6 km/h (0 Bft) NW 315 0 min 0,0 UV-I 12,3 C 19,9 C 0,0 km/h (0 Bft)
17.06.2014 12:40 17,3 C 25,1 C 17,1 C 20,3 C 20,3 C 3,0 C 73 % 75 % 79 % 1020,1 hPa 0,0 l/m 0,6 km/h (0 Bft) O-NO 67 0 min 0,0 UV-I 12,4 C 20,3 C 0,0 km/h (0 Bft)
17.06.2014 12:45 17,4 C 25,1 C 17,2 C 20,8 C 20,8 C 3,4 C 73 % 75 % 89 % 1020,1 hPa 0,0 l/m 0,0 km/h (0 Bft) S-SO 157 5 min 0,0 UV-I 12,5 C 20,8 C 0,0 km/h (0 Bft)
17.06.2014 12:50 17,5 C 25,1 C 17,4 C 21,3 C 21,3 C 3,8 C 73 % 75 % 100 % 1020,1 hPa 0,0 l/m 0,5 km/h (0 Bft) W 270 5 min 0,0 UV-I 12,6 C 21,3 C 0,0 km/h (0 Bft)
17.06.2014 12:55 17,7 C 25,1 C 17,7 C 21,9 C 21,9 C 4,2 C 73 % 75 % 100 % 1020,1 hPa 0,0 l/m 1,0 km/h (0 Bft) S-SW 202 5 min 0,0 UV-I 12,8 C 21,9 C 0,0 km/h (0 Bft)
17.06.2014 13:00 18,1 C 25,1 C 18,0 C 22,7 C 22,7 C 4,6 C 71 % 74 % 100 % 1020,1 hPa 0,0 l/m 1,3 km/h (1 Bft) W-SW 247 5 min 0,0 UV-I 12,8 C 22,7 C 2,9 km/h (1 Bft)
17.06.2014 13:05 18,4 C 25,1 C 18,3 C 23,1 C 23,1 C 4,7 C 71 % 74 % 100 % 1020,1 hPa 0,0 l/m 1,6 km/h (1 Bft) W-SW 247 5 min 0,0 UV-I 13,0 C 23,1 C 0,0 km/h (0 Bft)
17.06.2014 13:10 18,7 C 25,1 C 18,4 C 23,9 C 23,9 C 5,2 C 68 % 73 % 100 % 1020,1 hPa 0,0 l/m 1,3 km/h (1 Bft) W-SW 247 5 min 0,0 UV-I 12,7 C 23,9 C 0,0 km/h (0 Bft)
17.06.2014 13:15 18,8 C 25,1 C 18,5 C 24,2 C 24,2 C 5,4 C 69 % 73 % 100 % 1020,1 hPa 0,0 l/m 1,0 km/h (0 Bft) W-SW 247 5 min 0,0 UV-I 13,0 C 24,2 C 0,0 km/h (0 Bft)
17.06.2014 13:20 19,1 C 25,2 C 18,7 C 24,5 C 24,5 C 5,4 C 68 % 73 % 100 % 1019,5 hPa 0,0 l/m 1,1 km/h (1 Bft) SW 225 5 min 0,0 UV-I 13,1 C 24,5 C 4,2 km/h (1 Bft)
17.06.2014 13:25 19,3 C 25,2 C 18,7 C 24,5 C 24,5 C 5,2 C 67 % 72 % 100 % 1019,5 hPa 0,0 l/m 1,6 km/h (1 Bft) W-SW 247 5 min 0,0 UV-I 13,0 C 24,5 C 3,7 km/h (1 Bft)
17.06.2014 13:30 19,2 C 25,2 C 18,8 C 24,5 C 24,5 C 5,3 C 65 % 71 % 100 % 1019,5 hPa 0,0 l/m 2,6 km/h (1 Bft) SW 225 5 min 0,0 UV-I 12,5 C 24,5 C 7,4 km/h (2 Bft)
17.06.2014 13:35 19,2 C 25,2 C 18,9 C 24,2 C 24,2 C 5,0 C 65 % 71 % 100 % 1019,5 hPa 0,0 l/m 2,9 km/h (1 Bft) O-SO 112 5 min 0,0 UV-I 12,5 C 24,2 C 3,7 km/h (1 Bft)
17.06.2014 13:40 19,7 C 25,2 C 19,3 C 25,3 C 25,3 C 5,6 C 64 % 71 % 100 % 1019,7 hPa 0,0 l/m 2,7 km/h (1 Bft) NW 315 5 min 0,0 UV-I 12,7 C 25,3 C 4,5 km/h (1 Bft)
17.06.2014 13:45 19,9 C 25,2 C 19,6 C 25,4 C 25,4 C 5,5 C 63 % 70 % 100 % 1019,7 hPa 0,0 l/m 3,1 km/h (1 Bft) W-SW 247 5 min 0,0 UV-I 12,6 C 25,4 C 7,2 km/h (2 Bft)
17.06.2014 13:50 19,7 C 25,2 C 19,5 C 24,6 C 24,6 C 4,9 C 62 % 68 % 100 % 1019,7 hPa 0,0 l/m 3,4 km/h (1 Bft) N-NW 337 5 min 0,0 UV-I 12,2 C 24,6 C 5,8 km/h (2 Bft)
17.06.2014 13:55 19,5 C 25,2 C 18,8 C 23,6 C 23,6 C 4,1 C 60 % 65 % 100 % 1019,7 hPa 0,0 l/m 3,4 km/h (1 Bft) NW 315 5 min 0,0 UV-I 11,5 C 23,6 C 3,7 km/h (1 Bft)
17.06.2014 14:00 19,1 C 25,2 C 18,7 C 22,5 C 22,5 C 3,4 C 61 % 67 % 89 % 1019,4 hPa 0,0 l/m 2,9 km/h (1 Bft) N-NO 22 5 min 0,0 UV-I 11,4 C 22,5 C 3,7 km/h (1 Bft)
17.06.2014 14:05 18,9 C 25,2 C 18,7 C 22,0 C 22,0 C 3,1 C 60 % 65 % 82 % 1019,4 hPa 0,0 l/m 2,7 km/h (1 Bft) N-NO 22 0 min 0,0 UV-I 11,0 C 22,0 C 3,4 km/h (1 Bft)
17.06.2014 14:10 18,7 C 25,2 C 18,5 C 21,5 C 21,5 C 2,8 C 61 % 65 % 74 % 1019,4 hPa 0,0 l/m 2,4 km/h (1 Bft) W-SW 247 0 min 0,0 UV-I 11,0 C 21,5 C 3,4 km/h (1 Bft)
17.06.2014 14:15 18,6 C 25,2 C 18,3 C 21,3 C 21,3 C 2,7 C 61 % 64 % 71 % 1019,4 hPa 0,0 l/m 2,4 km/h (1 Bft) N-NW 337 0 min 0,0 UV-I 10,9 C 21,3 C 9,8 km/h (2 Bft)
17.06.2014 14:20 18,4 C 25,2 C 18,4 C 21,2 C 21,2 C 2,8 C 62 % 67 % 74 % 1019,6 hPa 0,0 l/m 2,9 km/h (1 Bft) NW 315 0 min 0,0 UV-I 11,0 C 21,2 C 0,0 km/h (0 Bft)
17.06.2014 14:25 18,5 C 25,2 C 18,5 C 21,5 C 21,5 C 3,0 C 62 % 67 % 79 % 1019,6 hPa 0,0 l/m 2,6 km/h (1 Bft) N-NW 337 0 min 0,0 UV-I 11,1 C 21,5 C 3,5 km/h (1 Bft)
17.06.2014 14:30 18,7 C 25,2 C 18,8 C 22,1 C 22,1 C 3,4 C 63 % 67 % 89 % 1019,6 hPa 0,0 l/m 1,9 km/h (1 Bft) O-NO 67 5 min 0,0 UV-I 11,5 C 22,1 C 3,1 km/h (1 Bft)
17.06.2014 14:35 19,1 C 25,3 C 19,0 C 23,6 C 23,6 C 4,5 C 62 % 65 % 100 % 1019,6 hPa 0,0 l/m 2,6 km/h (1 Bft) SW 225 5 min 0,0 UV-I 11,6 C 23,6 C 3,1 km/h (1 Bft)
17.06.2014 14:40 19,2 C 25,3 C 19,1 C 24,2 C 24,2 C 5,0 C 62 % 66 % 100 % 1019,4 hPa 0,0 l/m 1,9 km/h (1 Bft) W-NW 292 5 min 0,0 UV-I 11,7 C 24,2 C 0,0 km/h (0 Bft)
17.06.2014 14:45 19,3 C 25,3 C 19,1 C 24,0 C 24,0 C 4,7 C 62 % 66 % 100 % 1019,4 hPa 0,0 l/m 1,4 km/h (1 Bft) W 270 5 min 0,0 UV-I 11,8 C 24,0 C 3,4 km/h (1 Bft)
17.06.2014 14:50 19,5 C 25,3 C 19,0 C 23,9 C 23,9 C 4,4 C 62 % 66 % 100 % 1019,4 hPa 0,0 l/m 1,6 km/h (1 Bft) W-SW 247 5 min 0,0 UV-I 12,0 C 23,9 C 2,1 km/h (1 Bft)
17.06.2014 14:55 19,5 C 25,3 C 19,2 C 23,8 C 23,8 C 4,3 C 62 % 66 % 100 % 1019,4 hPa 0,0 l/m 1,4 km/h (1 Bft) W 270 5 min 0,0 UV-I 12,0 C 23,8 C 0,0 km/h (0 Bft)
17.06.2014 15:00 19,5 C 25,3 C 19,1 C 23,9 C 23,9 C 4,4 C 61 % 66 % 100 % 1019,2 hPa 0,0 l/m 1,0 km/h (0 Bft) NW 315 5 min 0,0 UV-I 11,8 C 23,9 C 3,7 km/h (1 Bft)
17.06.2014 15:05 19,5 C 25,3 C 19,1 C 23,8 C 23,8 C 4,3 C 61 % 65 % 100 % 1019,2 hPa 0,0 l/m 1,1 km/h (1 Bft) N-NO 22 5 min 0,0 UV-I 11,8 C 23,8 C 1,9 km/h (1 Bft)
17.06.2014 15:10 19,6 C 25,3 C 19,2 C 23,9 C 23,9 C 4,3 C 60 % 64 % 100 % 1019,2 hPa 0,0 l/m 1,3 km/h (1 Bft) N-NO 22 5 min 0,0 UV-I 11,6 C 23,9 C 2,9 km/h (1 Bft)
17.06.2014 15:15 19,7 C 25,3 C 19,4 C 24,2 C 24,2 C 4,5 C 60 % 66 % 100 % 1019,2 hPa 0,0 l/m 1,1 km/h (1 Bft) N-NW 337 5 min 0,0 UV-I 11,7 C 24,2 C 0,0 km/h (0 Bft)
17.06.2014 15:20 20,0 C 25,2 C 19,7 C 25,8 C 25,8 C 5,8 C 58 % 64 % 100 % 1019,2 hPa 0,0 l/m 1,6 km/h (1 Bft) SO 135 5 min 0,0 UV-I 11,5 C 25,8 C 2,3 km/h (1 Bft)
17.06.2014 15:25 20,0 C 25,2 C 19,6 C 25,6 C 25,6 C 5,6 C 57 % 62 % 100 % 1019,2 hPa 0,0 l/m 1,4 km/h (1 Bft) NW 315 5 min 0,0 UV-I 11,2 C 25,6 C 2,4 km/h (1 Bft)
17.06.2014 15:30 19,7 C 25,3 C 19,5 C 25,2 C 25,2 C 5,5 C 56 % 61 % 100 % 1019,2 hPa 0,0 l/m 1,4 km/h (1 Bft) W-NW 292 5 min 0,0 UV-I 10,7 C 25,2 C 1,9 km/h (1 Bft)
17.06.2014 15:35 19,8 C 25,3 C 19,5 C 25,1 C 25,1 C 5,3 C 57 % 62 % 100 % 1019,2 hPa 0,0 l/m 1,8 km/h (1 Bft) O-SO 112 5 min 0,0 UV-I 11,0 C 25,1 C 0,0 km/h (0 Bft)
17.06.2014 15:40 19,8 C 25,3 C 19,7 C 25,5 C 25,5 C 5,7 C 58 % 60 % 100 % 1019,1 hPa 0,0 l/m 1,3 km/h (1 Bft) O 90 5 min 0,0 UV-I 11,3 C 25,5 C 2,7 km/h (1 Bft)
17.06.2014 15:45 19,9 C 25,3 C 19,6 C 25,3 C 25,3 C 5,4 C 57 % 61 % 100 % 1019,1 hPa 0,0 l/m 1,1 km/h (1 Bft) N-NO 22 5 min 0,0 UV-I 11,1 C 25,3 C 0,0 km/h (0 Bft)
17.06.2014 15:50 19,7 C 25,3 C 19,5 C 24,7 C 24,7 C 5,0 C 58 % 63 % 100 % 1019,1 hPa 0,0 l/m 1,1 km/h (1 Bft) O-NO 67 5 min 0,0 UV-I 11,2 C 24,7 C 4,5 km/h (1 Bft)
17.06.2014 15:55 19,5 C 25,3 C 19,4 C 23,8 C 23,8 C 4,3 C 58 % 62 % 100 % 1019,1 hPa 0,0 l/m 1,4 km/h (1 Bft) O-SO 112 5 min 0,0 UV-I 11,0 C 23,8 C 2,9 km/h (1 Bft)
17.06.2014 16:00 19,4 C 25,3 C 19,5 C 23,3 C 23,3 C 3,9 C 60 % 63 % 100 % 1019,1 hPa 0,0 l/m 1,9 km/h (1 Bft) N-NW 337 5 min 0,0 UV-I 11,4 C 23,3 C 2,6 km/h (1 Bft)
17.06.2014 16:05 19,5 C 25,3 C 19,5 C 23,2 C 23,2 C 3,7 C 60 % 63 % 97 % 1019,1 hPa 0,0 l/m 1,8 km/h (1 Bft) O-NO 67 5 min 0,0 UV-I 11,5 C 23,2 C 1,6 km/h (1 Bft)
17.06.2014 16:10 19,7 C 25,3 C 19,5 C 23,3 C 23,3 C 3,6 C 60 % 63 % 95 % 1019,1 hPa 0,0 l/m 1,8 km/h (1 Bft) SW 225 5 min 0,0 UV-I 11,7 C 23,3 C 3,4 km/h (1 Bft)
17.06.2014 16:15 19,9 C 25,3 C 19,6 C 23,4 C 23,4 C 3,5 C 59 % 63 % 92 % 1019,1 hPa 0,0 l/m 1,3 km/h (1 Bft) N-NW 337 5 min 0,0 UV-I 11,6 C 23,4 C 2,4 km/h (1 Bft)
17.06.2014 16:20 19,9 C 25,3 C 19,5 C 23,5 C 23,5 C 3,6 C 59 % 63 % 95 % 1019,1 hPa 0,0 l/m 1,3 km/h (1 Bft) SO 135 5 min 0,0 UV-I 11,6 C 23,5 C 0,0 km/h (0 Bft)
17.06.2014 16:25 19,9 C 25,3 C 19,5 C 23,3 C 23,3 C 3,4 C 59 % 63 % 89 % 1019,1 hPa 0,0 l/m 1,4 km/h (1 Bft) N-NW 337 5 min 0,0 UV-I 11,6 C 23,3 C 2,9 km/h (1 Bft)
17.06.2014 16:30 19,9 C 25,3 C 19,4 C 23,0 C 23,0 C 3,1 C 59 % 63 % 82 % 1019,1 hPa 0,0 l/m 1,6 km/h (1 Bft) N-NW 337 0 min 0,0 UV-I 11,6 C 23,0 C 1,9 km/h (1 Bft)
17.06.2014 16:35 19,9 C 25,3 C 19,4 C 23,1 C 23,1 C 3,2 C 59 % 63 % 84 % 1019,1 hPa 0,0 l/m 1,1 km/h (1 Bft) O-SO 112 0 min 0,0 UV-I 11,6 C 23,1 C 0,0 km/h (0 Bft)
17.06.2014 16:40 19,9 C 25,4 C 19,4 C 23,2 C 23,2 C 3,3 C 58 % 63 % 87 % 1018,9 hPa 0,0 l/m 1,0 km/h (0 Bft) S 180 5 min 0,0 UV-I 11,4 C 23,2 C 0,0 km/h (0 Bft)
17.06.2014 16:45 20,0 C 25,4 C 19,5 C 23,4 C 23,4 C 3,4 C 59 % 64 % 89 % 1018,9 hPa 0,0 l/m 1,0 km/h (0 Bft) NW 315 5 min 0,0 UV-I 11,7 C 23,4 C 1,6 km/h (1 Bft)
17.06.2014 16:50 20,0 C 25,4 C 19,4 C 24,7 C 24,7 C 4,7 C 58 % 62 % 100 % 1018,9 hPa 0,0 l/m 0,8 km/h (0 Bft) O-NO 67 5 min 0,0 UV-I 11,5 C 24,7 C 0,0 km/h (0 Bft)
17.06.2014 16:55 20,0 C 25,4 C 19,6 C 25,6 C 25,6 C 5,6 C 58 % 63 % 100 % 1018,9 hPa 0,0 l/m 1,1 km/h (1 Bft) S-SO 157 5 min 0,0 UV-I 11,5 C 25,6 C 1,8 km/h (1 Bft)
17.06.2014 17:00 20,0 C 25,4 C 19,7 C 26,7 C 26,7 C 6,7 C 56 % 61 % 100 % 1018,6 hPa 0,0 l/m 1,4 km/h (1 Bft) S-SW 202 5 min 0,0 UV-I 11,0 C 26,7 C 0,0 km/h (0 Bft)
17.06.2014 17:05 20,3 C 25,4 C 19,8 C 27,4 C 27,4 C 7,1 C 57 % 63 % 100 % 1018,6 hPa 0,0 l/m 1,9 km/h (1 Bft) NW 315 5 min 0,0 UV-I 11,5 C 27,4 C 3,1 km/h (1 Bft)
17.06.2014 17:10 20,6 C 25,4 C 20,0 C 27,3 C 27,3 C 6,7 C 58 % 62 % 100 % 1018,6 hPa 0,0 l/m 2,4 km/h (1 Bft) SW 225 5 min 0,0 UV-I 12,0 C 27,3 C 2,1 km/h (1 Bft)
17.06.2014 17:15 20,7 C 25,4 C 20,0 C 26,8 C 26,8 C 6,1 C 56 % 62 % 100 % 1018,6 hPa 0,0 l/m 3,1 km/h (1 Bft) S-SO 157 5 min 0,0 UV-I 11,6 C 26,8 C 7,2 km/h (2 Bft)
17.06.2014 17:20 20,7 C 25,4 C 19,7 C 25,3 C 25,3 C 4,6 C 55 % 61 % 100 % 1018,6 hPa 0,0 l/m 2,7 km/h (1 Bft) NW 315 5 min 0,0 UV-I 11,3 C 25,3 C 1,8 km/h (1 Bft)
17.06.2014 17:25 20,4 C 25,4 C 19,4 C 24,2 C 24,2 C 3,8 C 54 % 60 % 100 % 1018,6 hPa 0,0 l/m 1,9 km/h (1 Bft) NW 315 5 min 0,0 UV-I 10,8 C 24,2 C 0,0 km/h (0 Bft)
17.06.2014 17:30 20,3 C 25,4 C 19,3 C 23,4 C 23,4 C 3,1 C 56 % 61 % 82 % 1018,6 hPa 0,0 l/m 0,8 km/h (0 Bft) W-SW 247 0 min 0,0 UV-I 11,2 C 23,4 C 1,8 km/h (1 Bft)
17.06.2014 17:35 20,1 C 25,4 C 19,3 C 23,2 C 23,2 C 3,1 C 56 % 63 % 82 % 1018,6 hPa 0,0 l/m 0,5 km/h (0 Bft) N-NW 337 0 min 0,0 UV-I 11,0 C 23,2 C 2,9 km/h (1 Bft)
17.06.2014 17:40 20,0 C 25,5 C 19,3 C 22,9 C 22,9 C 2,9 C 56 % 62 % 76 % 1018,3 hPa 0,0 l/m 0,5 km/h (0 Bft) SW 225 0 min 0,0 UV-I 11,0 C 22,9 C 0,0 km/h (0 Bft)
17.06.2014 17:45 20,0 C 25,5 C 19,5 C 23,7 C 23,7 C 3,7 C 57 % 63 % 97 % 1018,3 hPa 0,0 l/m 1,6 km/h (1 Bft) S 180 5 min 0,0 UV-I 11,2 C 23,7 C 6,4 km/h (2 Bft)
17.06.2014 17:50 20,3 C 25,5 C 19,6 C 25,2 C 25,2 C 4,9 C 56 % 62 % 100 % 1018,3 hPa 0,0 l/m 2,1 km/h (1 Bft) N 360 5 min 0,0 UV-I 11,2 C 25,2 C 0,0 km/h (0 Bft)
17.06.2014 17:55 20,3 C 25,5 C 19,6 C 26,2 C 26,2 C 5,9 C 57 % 62 % 100 % 1018,3 hPa 0,0 l/m 1,4 km/h (1 Bft) O 90 5 min 0,0 UV-I 11,5 C 26,2 C 0,0 km/h (0 Bft)
17.06.2014 18:00 20,2 C 25,5 C 19,6 C 27,1 C 27,1 C 6,9 C 57 % 62 % 100 % 1018,2 hPa 0,0 l/m 0,6 km/h (0 Bft) N-NO 22 5 min 0,0 UV-I 11,4 C 27,1 C 2,1 km/h (1 Bft)
17.06.2014 18:05 20,3 C 25,5 C 19,7 C 27,3 C 27,3 C 7,0 C 55 % 60 % 100 % 1018,2 hPa 0,0 l/m 1,0 km/h (0 Bft) W-NW 292 5 min 0,0 UV-I 11,0 C 27,3 C 0,0 km/h (0 Bft)
17.06.2014 18:10 20,2 C 25,5 C 19,6 C 27,7 C 27,7 C 7,5 C 56 % 61 % 100 % 1018,2 hPa 0,0 l/m 1,0 km/h (0 Bft) O 90 5 min 0,0 UV-I 11,1 C 27,7 C 2,1 km/h (1 Bft)
17.06.2014 18:15 20,3 C 25,5 C 19,7 C 27,5 C 27,5 C 7,2 C 55 % 61 % 100 % 1018,2 hPa 0,0 l/m 1,1 km/h (1 Bft) W-NW 292 5 min 0,0 UV-I 11,0 C 27,5 C 0,0 km/h (0 Bft)
17.06.2014 18:20 20,2 C 25,5 C 19,9 C 27,7 C 27,7 C 7,5 C 56 % 61 % 100 % 1018,2 hPa 0,0 l/m 1,0 km/h (0 Bft) N-NW 337 5 min 0,0 UV-I 11,1 C 27,7 C 0,0 km/h (0 Bft)
17.06.2014 18:25 20,2 C 25,5 C 20,0 C 27,9 C 27,9 C 7,7 C 57 % 61 % 100 % 1018,2 hPa 0,0 l/m 0,6 km/h (0 Bft) O-SO 112 5 min 0,0 UV-I 11,4 C 27,9 C 0,0 km/h (0 Bft)
17.06.2014 18:30 20,3 C 25,5 C 20,1 C 28,3 C 28,3 C 8,0 C 56 % 61 % 100 % 1018,2 hPa 0,0 l/m 0,5 km/h (0 Bft) O 90 5 min 0,0 UV-I 11,2 C 28,3 C 0,0 km/h (0 Bft)
17.06.2014 18:35 20,5 C 25,5 C 20,3 C 28,3 C 28,3 C 7,8 C 56 % 61 % 100 % 1018,2 hPa 0,0 l/m 0,6 km/h (0 Bft) W 270 5 min 0,0 UV-I 11,4 C 28,3 C 4,0 km/h (1 Bft)
17.06.2014 18:40 20,7 C 25,6 C 20,3 C 27,6 C 27,6 C 6,9 C 56 % 60 % 100 % 1017,9 hPa 0,0 l/m 0,8 km/h (0 Bft) NW 315 5 min 0,0 UV-I 11,6 C 27,6 C 2,1 km/h (1 Bft)
17.06.2014 18:45 20,7 C 25,6 C 20,1 C 27,5 C 27,5 C 6,8 C 55 % 59 % 100 % 1017,9 hPa 0,0 l/m 1,0 km/h (0 Bft) SW 225 5 min 0,0 UV-I 11,3 C 27,5 C 0,0 km/h (0 Bft)
17.06.2014 18:50 20,7 C 25,6 C 20,1 C 27,2 C 27,2 C 6,5 C 56 % 59 % 100 % 1017,9 hPa 0,0 l/m 0,3 km/h (0 Bft) NW 315 5 min 0,0 UV-I 11,6 C 27,2 C 0,0 km/h (0 Bft)
17.06.2014 18:55 20,7 C 25,6 C 19,8 C 26,3 C 26,3 C 5,6 C 55 % 60 % 100 % 1017,9 hPa 0,0 l/m 0,2 km/h (0 Bft) W 270 5 min 0,0 UV-I 11,3 C 26,3 C 2,7 km/h (1 Bft)
17.06.2014 19:00 20,7 C 25,6 C 19,7 C 24,3 C 24,3 C 3,6 C 55 % 62 % 95 % 1017,9 hPa 0,0 l/m 0,5 km/h (0 Bft) O-SO 112 5 min 0,0 UV-I 11,3 C 24,3 C 0,0 km/h (0 Bft)
17.06.2014 19:05 20,6 C 25,6 C 19,5 C 23,4 C 23,4 C 2,8 C 55 % 62 % 74 % 1017,9 hPa 0,0 l/m 0,5 km/h (0 Bft) N-NW 337 0 min 0,0 UV-I 11,2 C 23,4 C 1,6 km/h (1 Bft)
17.06.2014 19:10 20,7 C 25,6 C 19,7 C 23,6 C 23,6 C 2,9 C 56 % 62 % 76 % 1017,9 hPa 0,0 l/m 0,8 km/h (0 Bft) W-SW 247 0 min 0,0 UV-I 11,6 C 23,6 C 3,1 km/h (1 Bft)
17.06.2014 19:15 20,7 C 25,6 C 19,7 C 23,4 C 23,4 C 2,7 C 56 % 63 % 71 % 1017,9 hPa 0,0 l/m 1,8 km/h (1 Bft) W-SW 247 0 min 0,0 UV-I 11,6 C 23,4 C 4,8 km/h (1 Bft)
17.06.2014 19:20 20,4 C 25,7 C 19,5 C 22,0 C 22,0 C 1,6 C 56 % 64 % 42 % 1018,0 hPa 0,0 l/m 2,3 km/h (1 Bft) W-SW 247 0 min 0,0 UV-I 11,3 C 22,0 C 1,8 km/h (1 Bft)
17.06.2014 19:25 20,3 C 25,7 C 19,3 C 21,4 C 21,4 C 1,1 C 56 % 64 % 29 % 1018,0 hPa 0,0 l/m 1,6 km/h (1 Bft) S-SW 202 0 min 0,0 UV-I 11,2 C 21,4 C 0,0 km/h (0 Bft)
17.06.2014 19:30 20,1 C 25,7 C 19,1 C 20,6 C 20,6 C 0,5 C 58 % 65 % 13 % 1018,0 hPa 0,0 l/m 0,8 km/h (0 Bft) W-SW 247 0 min 0,0 UV-I 11,6 C 20,6 C 0,0 km/h (0 Bft)
17.06.2014 19:35 20,0 C 25,7 C 19,0 C 20,3 C 20,3 C 0,3 C 58 % 67 % 8 % 1018,0 hPa 0,0 l/m 0,5 km/h (0 Bft) W 270 0 min 0,0 UV-I 11,5 C 20,3 C 0,0 km/h (0 Bft)
17.06.2014 19:40 19,9 C 25,7 C 18,8 C 19,8 C 19,7 C 0,0 C 59 % 67 % 0 % 1017,9 hPa 0,0 l/m 0,3 km/h (0 Bft) SW 225 0 min 0,0 UV-I 11,6 C 19,7 C 0,0 km/h (0 Bft)
17.06.2014 19:45 19,9 C 25,7 C 18,7 C 19,7 C 19,4 C 0,0 C 60 % 68 % 0 % 1017,9 hPa 0,0 l/m 0,3 km/h (0 Bft) S-SW 202 0 min 0,0 UV-I 11,9 C 19,4 C 0,0 km/h (0 Bft)
17.06.2014 19:50 19,6 C 25,7 C 18,5 C 19,4 C 19,0 C 0,0 C 61 % 70 % 0 % 1017,9 hPa 0,0 l/m 0,0 km/h (0 Bft) SW 225 0 min 0,0 UV-I 11,9 C 19,0 C 0,0 km/h (0 Bft)
17.06.2014 19:55 19,5 C 25,7 C 18,5 C 19,3 C 18,8 C 0,0 C 61 % 70 % 0 % 1017,9 hPa 0,0 l/m 0,0 km/h (0 Bft) SW 225 0 min 0,0 UV-I 11,8 C 18,8 C 0,0 km/h (0 Bft)
17.06.2014 20:00 19,2 C 25,8 C 18,3 C 19,0 C 18,5 C 0,0 C 62 % 70 % 0 % 1018,1 hPa 0,0 l/m 0,2 km/h (0 Bft) O 90 0 min 0,0 UV-I 11,7 C 18,5 C 0,0 km/h (0 Bft)
17.06.2014 20:05 19,1 C 25,8 C 18,1 C 18,8 C 18,3 C 0,0 C 62 % 70 % 0 % 1018,1 hPa 0,0 l/m 0,2 km/h (0 Bft) S 180 0 min 0,0 UV-I 11,6 C 18,3 C 0,0 km/h (0 Bft)
17.06.2014 20:10 18,9 C 25,8 C 18,1 C 18,6 C 18,1 C 0,0 C 63 % 71 % 0 % 1018,1 hPa 0,0 l/m 0,0 km/h (0 Bft) W 270 0 min 0,0 UV-I 11,7 C 18,1 C 0,0 km/h (0 Bft)
17.06.2014 20:15 18,9 C 25,8 C 17,9 C 18,6 C 17,9 C 0,0 C 64 % 71 % 0 % 1018,1 hPa 0,0 l/m 0,0 km/h (0 Bft) W 270 0 min 0,0 UV-I 11,9 C 17,9 C 0,0 km/h (0 Bft)
17.06.2014 20:20 18,8 C 25,8 C 17,7 C 18,4 C 17,6 C 0,0 C 65 % 72 % 0 % 1017,8 hPa 0,0 l/m 0,0 km/h (0 Bft) SW 225 0 min 0,0 UV-I 12,1 C 17,6 C 0,0 km/h (0 Bft)
17.06.2014 20:25 18,6 C 25,8 C 17,6 C 18,2 C 17,4 C 0,0 C 66 % 73 % 0 % 1017,8 hPa 0,0 l/m 0,0 km/h (0 Bft) W-SW 247 0 min 0,0 UV-I 12,1 C 17,4 C 0,0 km/h (0 Bft)
17.06.2014 20:30 18,4 C 25,8 C 17,3 C 17,9 C 17,0 C 0,0 C 66 % 73 % 0 % 1017,8 hPa 0,0 l/m 0,0 km/h (0 Bft) W-SW 247 0 min 0,0 UV-I 11,9 C 17,0 C 0,0 km/h (0 Bft)
17.06.2014 20:35 18,3 C 25,8 C 17,2 C 17,8 C 16,8 C 0,0 C 66 % 73 % 0 % 1017,8 hPa 0,0 l/m 0,0 km/h (0 Bft) W-SW 247 0 min 0,0 UV-I 11,8 C 16,8 C 0,0 km/h (0 Bft)
17.06.2014 20:40 18,1 C 25,8 C 17,1 C 17,6 C 16,5 C 0,0 C 67 % 74 % 0 % 1017,9 hPa 0,0 l/m 0,0 km/h (0 Bft) W-SW 247 0 min 0,0 UV-I 11,9 C 16,5 C 0,0 km/h (0 Bft)
17.06.2014 20:45 18,0 C 25,8 C 17,1 C 17,5 C 16,4 C 0,0 C 68 % 75 % 0 % 1017,9 hPa 0,0 l/m 0,0 km/h (0 Bft) S-SW 202 0 min 0,0 UV-I 12,0 C 16,4 C 0,0 km/h (0 Bft)
17.06.2014 20:50 17,9 C 25,8 C 16,9 C 17,3 C 16,1 C 0,0 C 69 % 75 % 0 % 1017,9 hPa 0,0 l/m 0,0 km/h (0 Bft) W-SW 247 0 min 0,0 UV-I 12,1 C 16,1 C 0,0 km/h (0 Bft)
17.06.2014 20:55 17,6 C 25,8 C 16,7 C 17,0 C 15,9 C 0,0 C 70 % 76 % 0 % 1017,9 hPa 0,0 l/m 0,0 km/h (0 Bft) W 270 0 min 0,0 UV-I 12,1 C 15,9 C 0,0 km/h (0 Bft)
17.06.2014 21:00 17,5 C 25,8 C 16,5 C 16,9 C 15,6 C 0,0 C 71 % 76 % 0 % 1018,0 hPa 0,0 l/m 0,0 km/h (0 Bft) W 270 0 min 0,0 UV-I 12,2 C 15,6 C 0,0 km/h (0 Bft)
17.06.2014 21:05 17,3 C 25,9 C 16,5 C 16,7 C 15,4 C 0,0 C 71 % 77 % 0 % 1018,0 hPa 0,0 l/m 0,0 km/h (0 Bft) SW 225 0 min 0,0 UV-I 12,0 C 15,4 C 0,0 km/h (0 Bft)
17.06.2014 21:10 17,0 C 25,9 C 16,3 C 16,3 C 15,0 C 0,0 C 72 % 77 % 0 % 1018,0 hPa 0,0 l/m 0,0 km/h (0 Bft) W 270 0 min 0,0 UV-I 11,9 C 15,0 C 0,0 km/h (0 Bft)
17.06.2014 21:15 16,8 C 25,9 C 16,1 C 16,2 C 14,9 C 0,0 C 73 % 77 % 0 % 1018,0 hPa 0,0 l/m 0,0 km/h (0 Bft) SW 225 0 min 0,0 UV-I 11,9 C 14,9 C 0,0 km/h (0 Bft)
17.06.2014 21:20 16,6 C 25,9 C 15,9 C 15,9 C 14,5 C 0,0 C 74 % 78 % 0 % 1018,2 hPa 0,0 l/m 0,0 km/h (0 Bft) SW 225 0 min 0,0 UV-I 11,9 C 14,5 C 0,0 km/h (0 Bft)
17.06.2014 21:25 16,4 C 25,9 C 15,9 C 15,7 C 14,2 C 0,0 C 74 % 79 % 0 % 1018,2 hPa 0,0 l/m 0,0 km/h (0 Bft) SW 225 0 min 0,0 UV-I 11,8 C 14,2 C 0,0 km/h (0 Bft)
17.06.2014 21:30 16,1 C 25,9 C 15,7 C 15,4 C 13,9 C 0,0 C 75 % 79 % 0 % 1018,2 hPa 0,0 l/m 0,0 km/h (0 Bft) SW 225 0 min 0,0 UV-I 11,7 C 13,9 C 0,0 km/h (0 Bft)
17.06.2014 21:35 15,9 C 25,9 C 15,5 C 15,1 C 13,6 C 0,0 C 76 % 80 % 0 % 1018,2 hPa 0,0 l/m 0,0 km/h (0 Bft) O 90 0 min 0,0 UV-I 11,7 C 13,6 C 0,0 km/h (0 Bft)
17.06.2014 21:40 15,6 C 26,0 C 15,3 C 14,9 C 13,5 C 0,0 C 76 % 80 % 0 % 1018,4 hPa 0,0 l/m 0,0 km/h (0 Bft) O 90 0 min 0,0 UV-I 11,4 C 13,5 C 0,0 km/h (0 Bft)
17.06.2014 21:45 15,5 C 26,1 C 15,2 C 14,8 C 13,4 C 0,0 C 77 % 80 % 0 % 1018,4 hPa 0,0 l/m 0,0 km/h (0 Bft) O 90 0 min 0,0 UV-I 11,5 C 13,4 C 0,0 km/h (0 Bft)
17.06.2014 21:50 15,3 C 26,0 C 15,0 C 14,6 C 13,1 C 0,0 C 77 % 80 % 0 % 1018,4 hPa 0,0 l/m 0,0 km/h (0 Bft) O 90 0 min 0,0 UV-I 11,3 C 13,1 C 0,0 km/h (0 Bft)
17.06.2014 21:55 15,1 C 26,0 C 14,9 C 14,4 C 12,9 C 0,0 C 78 % 80 % 0 % 1018,4 hPa 0,0 l/m 0,0 km/h (0 Bft) O 90 0 min 0,0 UV-I 11,3 C 12,9 C 0,0 km/h (0 Bft)
17.06.2014 22:00 14,8 C 26,1 C 14,7 C 14,1 C 12,6 C 0,0 C 78 % 81 % 0 % 1018,8 hPa 0,0 l/m 0,0 km/h (0 Bft) S-SW 202 0 min 0,0 UV-I 11,0 C 12,6 C 0,0 km/h (0 Bft)
17.06.2014 22:05 14,7 C 26,1 C 14,5 C 14,0 C 12,5 C 0,0 C 79 % 81 % 0 % 1018,8 hPa 0,0 l/m 0,0 km/h (0 Bft) S-SW 202 0 min 0,0 UV-I 11,1 C 12,5 C 0,0 km/h (0 Bft)
17.06.2014 22:10 14,5 C 26,1 C 14,3 C 13,8 C 12,3 C 0,0 C 79 % 81 % 0 % 1018,8 hPa 0,0 l/m 0,0 km/h (0 Bft) SW 225 0 min 0,0 UV-I 10,9 C 12,3 C 0,0 km/h (0 Bft)
17.06.2014 22:15 14,4 C 26,1 C 14,3 C 13,7 C 12,2 C 0,0 C 79 % 82 % 0 % 1018,8 hPa 0,0 l/m 0,0 km/h (0 Bft) S-SW 202 0 min 0,0 UV-I 10,8 C 12,2 C 0,0 km/h (0 Bft)
17.06.2014 22:20 14,2 C 26,1 C 14,0 C 13,5 C 12,0 C 0,0 C 80 % 82 % 0 % 1018,6 hPa 0,0 l/m 0,0 km/h (0 Bft) S-SW 202 0 min 0,0 UV-I 10,8 C 12,0 C 0,0 km/h (0 Bft)
17.06.2014 22:25 14,0 C 26,1 C 13,9 C 13,3 C 12,0 C 0,0 C 80 % 82 % 0 % 1018,6 hPa 0,0 l/m 0,0 km/h (0 Bft) S-SW 202 0 min 0,0 UV-I 10,6 C 12,0 C 0,0 km/h (0 Bft)
17.06.2014 22:30 13,8 C 26,1 C 13,8 C 13,2 C 11,9 C 0,0 C 81 % 83 % 0 % 1018,6 hPa 0,0 l/m 0,0 km/h (0 Bft) S-SW 202 0 min 0,0 UV-I 10,6 C 11,9 C 0,0 km/h (0 Bft)
17.06.2014 22:35 13,7 C 26,1 C 13,8 C 13,1 C 11,8 C 0,0 C 81 % 83 % 0 % 1018,6 hPa 0,0 l/m 0,0 km/h (0 Bft) SW 225 0 min 0,0 UV-I 10,5 C 11,8 C 0,0 km/h (0 Bft)
17.06.2014 22:40 13,6 C 26,1 C 13,6 C 13,0 C 11,8 C 0,0 C 81 % 82 % 0 % 1018,8 hPa 0,0 l/m 0,0 km/h (0 Bft) S 180 0 min 0,0 UV-I 10,4 C 11,8 C 0,0 km/h (0 Bft)
17.06.2014 22:45 13,5 C 26,0 C 13,6 C 12,9 C 11,8 C 0,0 C 82 % 83 % 0 % 1018,8 hPa 0,0 l/m 0,0 km/h (0 Bft) S 180 0 min 0,0 UV-I 10,5 C 11,8 C 0,0 km/h (0 Bft)
17.06.2014 22:50 13,3 C 26,1 C 13,4 C 12,8 C 11,7 C 0,0 C 82 % 83 % 0 % 1018,8 hPa 0,0 l/m 0,0 km/h (0 Bft) S 180 0 min 0,0 UV-I 10,3 C 11,7 C 0,0 km/h (0 Bft)
17.06.2014 22:55 13,3 C 26,1 C 13,5 C 12,7 C 11,6 C 0,0 C 82 % 83 % 0 % 1018,8 hPa 0,0 l/m 0,0 km/h (0 Bft) S 180 0 min 0,0 UV-I 10,3 C 11,6 C 0,0 km/h (0 Bft)
17.06.2014 23:00 13,1 C 26,0 C 13,3 C 12,6 C 11,6 C 0,0 C 82 % 83 % 0 % 1018,6 hPa 0,0 l/m 0,0 km/h (0 Bft) W-SW 247 0 min 0,0 UV-I 10,1 C 11,6 C 0,0 km/h (0 Bft)
17.06.2014 23:05 13,1 C 26,1 C 13,2 C 12,6 C 11,5 C 0,0 C 83 % 83 % 0 % 1018,6 hPa 0,0 l/m 0,0 km/h (0 Bft) S 180 0 min 0,0 UV-I 10,3 C 11,5 C 0,0 km/h (0 Bft)
17.06.2014 23:10 12,8 C 26,0 C 13,1 C 12,3 C 11,4 C 0,0 C 83 % 84 % 0 % 1018,6 hPa 0,0 l/m 0,0 km/h (0 Bft) S 180 0 min 0,0 UV-I 10,0 C 11,4 C 0,0 km/h (0 Bft)
17.06.2014 23:15 12,8 C 26,0 C 13,1 C 12,3 C 11,3 C 0,0 C 83 % 84 % 0 % 1018,6 hPa 0,0 l/m 0,0 km/h (0 Bft) S 180 0 min 0,0 UV-I 10,0 C 11,3 C 0,0 km/h (0 Bft)
17.06.2014 23:20 12,6 C 26,0 C 12,9 C 12,1 C 11,2 C 0,0 C 83 % 84 % 0 % 1018,7 hPa 0,0 l/m 0,0 km/h (0 Bft) S 180 0 min 0,0 UV-I 9,8 C 11,2 C 0,0 km/h (0 Bft)
17.06.2014 23:25 12,5 C 26,0 C 12,8 C 12,1 C 11,2 C 0,0 C 83 % 84 % 0 % 1018,7 hPa 0,0 l/m 0,0 km/h (0 Bft) S 180 0 min 0,0 UV-I 9,7 C 11,2 C 0,0 km/h (0 Bft)
17.06.2014 23:30 12,3 C 26,0 C 12,8 C 11,9 C 11,2 C 0,0 C 84 % 84 % 0 % 1018,7 hPa 0,0 l/m 0,0 km/h (0 Bft) S 180 0 min 0,0 UV-I 9,7 C 11,2 C 0,0 km/h (0 Bft)
17.06.2014 23:35 12,2 C 26,0 C 12,7 C 11,9 C 11,2 C 0,0 C 84 % 84 % 0 % 1018,7 hPa 0,0 l/m 0,0 km/h (0 Bft) W-SW 247 0 min 0,0 UV-I 9,6 C 11,2 C 0,0 km/h (0 Bft)
17.06.2014 23:40 12,1 C 26,1 C 12,6 C 11,7 C 11,0 C 0,0 C 84 % 84 % 0 % 1018,5 hPa 0,0 l/m 0,0 km/h (0 Bft) S-SW 202 0 min 0,0 UV-I 9,5 C 11,0 C 0,0 km/h (0 Bft)
17.06.2014 23:45 12,0 C 26,1 C 12,5 C 11,7 C 11,0 C 0,0 C 84 % 84 % 0 % 1018,5 hPa 0,0 l/m 0,0 km/h (0 Bft) S-SO 157 0 min 0,0 UV-I 9,4 C 11,0 C 0,0 km/h (0 Bft)
17.06.2014 23:50 11,9 C 26,1 C 12,4 C 11,6 C 10,9 C 0,0 C 84 % 84 % 0 % 1018,5 hPa 0,0 l/m 0,0 km/h (0 Bft) S-SO 157 0 min 0,0 UV-I 9,3 C 10,9 C 0,0 km/h (0 Bft)
17.06.2014 23:55 11,7 C 26,1 C 12,4 C 11,4 C 10,8 C 0,0 C 84 % 84 % 0 % 1018,5 hPa 0,0 l/m 0,0 km/h (0 Bft) S-SO 157 0 min 0,0 UV-I 9,1 C 10,8 C 0,0 km/h (0 Bft)
_ Min-Zeit 04:40 09:10 04:25 04:30 04:30 00:00 17:25 18:45 00:00 20:20 - 00:00 - - - 00:00 04:40 04:30 00:00
Minimum _ 8,3 C 25,1 C 9,9 C 8,5 C 8,5 C 0,0 C 54 % 59 % 0 % 1017,8 hPa - 0,0 km/h (0 Bft) - - - 0,0 UV-I 6,4 C 8,5 C 0,0 km/h (0 Bft)
_ Max-Zeit 17:15 00:00 18:35 18:30 18:30 18:30 06:50 04:50 08:10 10:00 00:00 11:45 - - 05:10 00:00 13:20 18:30 14:15
Maximum _ 20,7 C 26,4 C 20,3 C 28,3 C 28,3 C 8,0 C 91 % 88 % 100 % 1020,2 hPa 0,0 l/m 3,9 km/h
S (1 Bft)
- - 5 min 0,0 UV-I 13,1 C 28,3 C 9,8 km/h
N-NW (2 Bft)
Durchschnitt _ 14,9 C 25,6 C 15,2 C 17,1 C 16,9 C 2,3 C 76 % 78 % 47 % 1019,0 hPa #0,0 l/m 0,6 km/h (0 Bft) SW - #9:00 h 0,0 UV-I 10,4 C 16,9 C 1,0 km/h (0 Bft)
2014 www.wetterstation-wechselburg.de